owner,sensor,date,latitude,longitude,relative_humidity,qcFlag 
TABS,ioos:station:wmo:42047:1,2019-03-01T05:00:00Z,27.8966,-93.5973,95.0,1111122 
TABS,ioos:station:wmo:42047:1,2019-03-01T06:30:00Z,27.8966,-93.5973,95.2,1111122 
TABS,ioos:station:wmo:42047:1,2019-03-01T08:00:00Z,27.8966,-93.5973,95.0,1111122 
TABS,ioos:station:wmo:42047:1,2019-03-01T09:00:00Z,27.8966,-93.5973,92.9,1111122 
TABS,ioos:station:wmo:42047:1,2019-03-01T10:00:00Z,27.8966,-93.5973,94.8,1111122 
TABS,ioos:station:wmo:42047:1,2019-03-01T11:00:00Z,27.8966,-93.5973,92.0,1111122 
TABS,ioos:station:wmo:42047:1,2019-03-01T12:00:00Z,27.8966,-93.5973,95.0,1111122 
TABS,ioos:station:wmo:42047:1,2019-03-01T13:00:00Z,27.8966,-93.5973,95.1,1111122 
TABS,ioos:station:wmo:42047:1,2019-03-01T14:00:00Z,27.8966,-93.5973,95.3,1111122 
TABS,ioos:station:wmo:42047:1,2019-03-01T15:00:00Z,27.8966,-93.5973,95.5,1111122 
TABS,ioos:station:wmo:42047:1,2019-03-01T16:00:00Z,27.8966,-93.5973,95.4,1111122 
TABS,ioos:station:wmo:42047:1,2019-03-01T17:00:00Z,27.8966,-93.5973,96.2,1111122 
TABS,ioos:station:wmo:42047:1,2019-03-01T18:00:00Z,27.8966,-93.5973,96.2,1111122 
TABS,ioos:station:wmo:42047:1,2019-03-01T19:00:00Z,27.8966,-93.5973,96.4,1111122 
TABS,ioos:station:wmo:42047:1,2019-03-01T20:00:00Z,27.8966,-93.5973,96.0,1111122 
TABS,ioos:station:wmo:42047:1,2019-03-01T20:30:00Z,27.8966,-93.5973,96.3,1111122 
TABS,ioos:station:wmo:42047:1,2019-03-01T22:00:00Z,27.8966,-93.5973,94.2,1111122 
TABS,ioos:station:wmo:42047:1,2019-03-01T23:00:00Z,27.8966,-93.5973,95.6,1111122 
TABS,ioos:station:wmo:42047:1,2019-03-01T23:30:00Z,27.8966,-93.5973,95.9,1111122 
TABS,ioos:station:wmo:42047:1,2019-03-02T06:00:00Z,27.8966,-93.5973,95.8,1111122 
TABS,ioos:station:wmo:42047:1,2019-03-02T07:00:00Z,27.8966,-93.5973,96.0,1111122 
TABS,ioos:station:wmo:42047:1,2019-03-02T08:00:00Z,27.8966,-93.5973,96.1,1111122 
TABS,ioos:station:wmo:42047:1,2019-03-02T09:00:00Z,27.8966,-93.5973,95.8,1111122 
TABS,ioos:station:wmo:42047:1,2019-03-02T10:00:00Z,27.8966,-93.5973,95.8,1111122 
TABS,ioos:station:wmo:42047:1,2019-03-02T11:00:00Z,27.8966,-93.5973,96.0,1111122 
TABS,ioos:station:wmo:42047:1,2019-03-02T12:00:00Z,27.8966,-93.5973,96.0,1111122 
TABS,ioos:station:wmo:42047:1,2019-03-02T13:00:00Z,27.8966,-93.5973,96.1,1111122 
TABS,ioos:station:wmo:42047:1,2019-03-02T14:00:00Z,27.8966,-93.5973,96.5,1111122 
TABS,ioos:station:wmo:42047:1,2019-03-02T15:00:00Z,27.8966,-93.5973,97.0,1111122 
TABS,ioos:station:wmo:42047:1,2019-03-02T16:00:00Z,27.8966,-93.5973,96.9,1111122 
TABS,ioos:station:wmo:42047:1,2019-03-02T17:00:00Z,27.8966,-93.5973,96.9,1111122 
TABS,ioos:station:wmo:42047:1,2019-03-02T18:00:00Z,27.8966,-93.5973,96.7,1111122 
TABS,ioos:station:wmo:42047:1,2019-03-02T19:00:00Z,27.8966,-93.5973,97.2,1111122 
TABS,ioos:station:wmo:42047:1,2019-03-02T20:00:00Z,27.8966,-93.5973,97.1,1111122 
TABS,ioos:station:wmo:42047:1,2019-03-02T21:00:00Z,27.8966,-93.5973,97.4,1111122 
TABS,ioos:station:wmo:42047:1,2019-03-02T22:00:00Z,27.8966,-93.5973,97.4,1111122 
TABS,ioos:station:wmo:42047:1,2019-03-02T23:00:00Z,27.8966,-93.5973,97.1,1111122 
TABS,ioos:station:wmo:42047:1,2019-03-02T23:30:00Z,27.8966,-93.5973,97.2,1111122 
TABS,ioos:station:wmo:42047:1,2019-03-03T06:00:00Z,27.8966,-93.5973,97.2,1111122 
TABS,ioos:station:wmo:42047:1,2019-03-03T07:00:00Z,27.8966,-93.5973,97.2,1111122 
TABS,ioos:station:wmo:42047:1,2019-03-03T08:00:00Z,27.8966,-93.5973,97.4,1111122 
TABS,ioos:station:wmo:42047:1,2019-03-03T09:00:00Z,27.8966,-93.5973,97.4,1111122 
TABS,ioos:station:wmo:42047:1,2019-03-03T09:30:00Z,27.8966,-93.5973,97.3,1111122 
TABS,ioos:station:wmo:42047:1,2019-03-03T11:00:00Z,27.8966,-93.5973,97.4,1111122 
TABS,ioos:station:wmo:42047:1,2019-03-03T12:00:00Z,27.8966,-93.5973,97.3,1111122 
TABS,ioos:station:wmo:42047:1,2019-03-03T13:00:00Z,27.8966,-93.5973,97.4,1111122 
TABS,ioos:station:wmo:42047:1,2019-03-03T14:00:00Z,27.8966,-93.5973,98.1,1111122 
TABS,ioos:station:wmo:42047:1,2019-03-03T15:00:00Z,27.8966,-93.5973,98.3,1111122 
TABS,ioos:station:wmo:42047:1,2019-03-03T16:00:00Z,27.8966,-93.5973,96.7,1111122 
TABS,ioos:station:wmo:42047:1,2019-03-03T17:00:00Z,27.8966,-93.5973,98.4,1111122 
TABS,ioos:station:wmo:42047:1,2019-03-03T18:00:00Z,27.8966,-93.5973,98.3,1111122 
TABS,ioos:station:wmo:42047:1,2019-03-03T19:00:00Z,27.8966,-93.5973,98.2,1111122 
TABS,ioos:station:wmo:42047:1,2019-03-03T20:00:00Z,27.8966,-93.5973,98.4,1111122 
TABS,ioos:station:wmo:42047:1,2019-03-03T21:00:00Z,27.8966,-93.5973,98.2,1111122 
TABS,ioos:station:wmo:42047:1,2019-03-03T22:00:00Z,27.8966,-93.5973,97.1,1111122 
TABS,ioos:station:wmo:42047:1,2019-03-03T23:00:00Z,27.8966,-93.5973,96.9,1111122 
TABS,ioos:station:wmo:42047:1,2019-03-03T23:30:00Z,27.8966,-93.5973,96.8,1111122 
TABS,ioos:station:wmo:42047:1,2019-03-04T05:00:00Z,27.8966,-93.5973,95.2,1111122 
TABS,ioos:station:wmo:42047:1,2019-03-04T06:00:00Z,27.8966,-93.5973,94.6,1111122 
TABS,ioos:station:wmo:42047:1,2019-03-04T07:00:00Z,27.8966,-93.5973,94.6,1111122 
TABS,ioos:station:wmo:42047:1,2019-03-04T08:00:00Z,27.8966,-93.5973,94.5,1111122 
TABS,ioos:station:wmo:42047:1,2019-03-04T09:00:00Z,27.8966,-93.5973,94.4,1111122 
TABS,ioos:station:wmo:42047:1,2019-03-04T10:00:00Z,27.8966,-93.5973,94.3,1111122 
TABS,ioos:station:wmo:42047:1,2019-03-04T11:00:00Z,27.8966,-93.5973,94.2,1111122 
TABS,ioos:station:wmo:42047:1,2019-03-04T12:00:00Z,27.8966,-93.5973,93.9,1111122 
TABS,ioos:station:wmo:42047:1,2019-03-04T13:00:00Z,27.8966,-93.5973,94.0,1111122 
TABS,ioos:station:wmo:42047:1,2019-03-04T13:30:00Z,27.8966,-93.5973,93.9,1111122 
TABS,ioos:station:wmo:42047:1,2019-03-04T15:00:00Z,27.8966,-93.5973,93.5,1111122 
TABS,ioos:station:wmo:42047:1,2019-03-04T16:00:00Z,27.8966,-93.5973,93.5,1111122 
TABS,ioos:station:wmo:42047:1,2019-03-04T17:00:00Z,27.8966,-93.5973,93.4,1111122 
TABS,ioos:station:wmo:42047:1,2019-03-04T18:00:00Z,27.8966,-93.5973,93.2,1111122 
TABS,ioos:station:wmo:42047:1,2019-03-04T18:30:00Z,27.8966,-93.5973,93.3,1111122 
TABS,ioos:station:wmo:42047:1,2019-03-04T19:30:00Z,27.8966,-93.5973,93.2,1111122 
TABS,ioos:station:wmo:42047:1,2019-03-04T21:00:00Z,27.8966,-93.5973,93.3,1111122 
TABS,ioos:station:wmo:42047:1,2019-03-04T22:00:00Z,27.8966,-93.5973,93.3,1111122 
TABS,ioos:station:wmo:42047:1,2019-03-04T23:00:00Z,27.8966,-93.5973,93.2,1111122 
TABS,ioos:station:wmo:42047:1,2019-03-04T23:30:00Z,27.8966,-93.5973,93.3,1111122 
TABS,ioos:station:wmo:42047:1,2019-03-05T04:30:00Z,27.8966,-93.5973,92.4,1111122 
TABS,ioos:station:wmo:42047:1,2019-03-05T05:30:00Z,27.8966,-93.5973,92.5,1111122 
TABS,ioos:station:wmo:42047:1,2019-03-05T07:00:00Z,27.8966,-93.5973,92.5,1111122 
TABS,ioos:station:wmo:42047:1,2019-03-05T08:00:00Z,27.8966,-93.5973,92.6,1111122 
TABS,ioos:station:wmo:42047:1,2019-03-05T09:00:00Z,27.8966,-93.5973,92.3,1111122 
TABS,ioos:station:wmo:42047:1,2019-03-05T10:00:00Z,27.8966,-93.5973,92.3,1111122 
TABS,ioos:station:wmo:42047:1,2019-03-05T11:00:00Z,27.8966,-93.5973,92.3,1111122 
TABS,ioos:station:wmo:42047:1,2019-03-05T12:00:00Z,27.8966,-93.5973,92.4,1111122 
TABS,ioos:station:wmo:42047:1,2019-03-05T13:00:00Z,27.8966,-93.5973,92.2,1111122 
TABS,ioos:station:wmo:42047:1,2019-03-05T14:00:00Z,27.8966,-93.5973,92.1,1111122 
TABS,ioos:station:wmo:42047:1,2019-03-05T15:00:00Z,27.8966,-93.5973,92.1,1111122 
TABS,ioos:station:wmo:42047:1,2019-03-05T16:00:00Z,27.8966,-93.5973,91.8,1111122 
TABS,ioos:station:wmo:42047:1,2019-03-05T17:00:00Z,27.8966,-93.5973,92.0,1111122 
TABS,ioos:station:wmo:42047:1,2019-03-05T18:00:00Z,27.8966,-93.5973,92.0,1111122 
TABS,ioos:station:wmo:42047:1,2019-03-05T18:30:00Z,27.8966,-93.5973,92.2,1111122 
TABS,ioos:station:wmo:42047:1,2019-03-05T20:00:00Z,27.8966,-93.5973,92.0,1111122 
TABS,ioos:station:wmo:42047:1,2019-03-05T22:00:00Z,27.8966,-93.5973,91.7,1111122 
TABS,ioos:station:wmo:42047:1,2019-03-05T23:00:00Z,27.8966,-93.5973,91.9,1111122 
TABS,ioos:station:wmo:42047:1,2019-03-05T23:30:00Z,27.8966,-93.5973,91.8,1111122 
TABS,ioos:station:wmo:42047:1,2019-03-06T04:30:00Z,27.8966,-93.5973,91.2,1111122 
TABS,ioos:station:wmo:42047:1,2019-03-06T06:00:00Z,27.8966,-93.5973,91.1,1111122 
TABS,ioos:station:wmo:42047:1,2019-03-06T07:00:00Z,27.8966,-93.5973,91.1,1111122 
TABS,ioos:station:wmo:42047:1,2019-03-06T08:00:00Z,27.8966,-93.5973,90.8,1111122 
TABS,ioos:station:wmo:42047:1,2019-03-06T09:00:00Z,27.8966,-93.5973,90.7,1111122 
TABS,ioos:station:wmo:42047:1,2019-03-06T10:00:00Z,27.8966,-93.5973,88.0,1111122 
TABS,ioos:station:wmo:42047:1,2019-03-06T11:00:00Z,27.8966,-93.5973,90.8,1111122 
TABS,ioos:station:wmo:42047:1,2019-03-06T12:00:00Z,27.8966,-93.5973,90.8,1111122 
TABS,ioos:station:wmo:42047:1,2019-03-06T13:00:00Z,27.8966,-93.5973,90.9,1111122 
TABS,ioos:station:wmo:42047:1,2019-03-06T14:00:00Z,27.8966,-93.5973,92.0,1111122 
TABS,ioos:station:wmo:42047:1,2019-03-06T15:00:00Z,27.8966,-93.5973,92.1,1111122 
TABS,ioos:station:wmo:42047:1,2019-03-06T16:00:00Z,27.8966,-93.5973,91.5,1111122 
TABS,ioos:station:wmo:42047:1,2019-03-06T17:00:00Z,27.8966,-93.5973,92.9,1111122 
TABS,ioos:station:wmo:42047:1,2019-03-06T18:00:00Z,27.8966,-93.5973,93.2,1111122 
TABS,ioos:station:wmo:42047:1,2019-03-06T19:00:00Z,27.8966,-93.5973,91.9,1111122 
TABS,ioos:station:wmo:42047:1,2019-03-06T20:00:00Z,27.8966,-93.5973,92.0,1111122 
TABS,ioos:station:wmo:42047:1,2019-03-06T21:00:00Z,27.8966,-93.5973,92.5,1111122 
TABS,ioos:station:wmo:42047:1,2019-03-06T22:00:00Z,27.8966,-93.5973,92.0,1111122 
TABS,ioos:station:wmo:42047:1,2019-03-06T23:00:00Z,27.8966,-93.5973,91.9,1111122 
TABS,ioos:station:wmo:42047:1,2019-03-06T23:30:00Z,27.8966,-93.5973,91.9,1111122 
TABS,ioos:station:wmo:42047:1,2019-03-07T05:00:00Z,27.8966,-93.5973,91.8,1111122 
TABS,ioos:station:wmo:42047:1,2019-03-07T06:00:00Z,27.8966,-93.5973,92.0,1111122 
TABS,ioos:station:wmo:42047:1,2019-03-07T07:00:00Z,27.8966,-93.5973,92.1,1111122 
TABS,ioos:station:wmo:42047:1,2019-03-07T08:00:00Z,27.8966,-93.5973,92.2,1111122 
TABS,ioos:station:wmo:42047:1,2019-03-07T09:00:00Z,27.8966,-93.5973,92.3,1111122 
TABS,ioos:station:wmo:42047:1,2019-03-07T10:00:00Z,27.8966,-93.5973,92.3,1111122 
TABS,ioos:station:wmo:42047:1,2019-03-07T11:00:00Z,27.8966,-93.5973,92.3,1111122 
TABS,ioos:station:wmo:42047:1,2019-03-07T12:00:00Z,27.8966,-93.5973,92.4,1111122 
TABS,ioos:station:wmo:42047:1,2019-03-07T13:00:00Z,27.8966,-93.5973,92.4,1111122 
TABS,ioos:station:wmo:42047:1,2019-03-07T14:00:00Z,27.8966,-93.5973,92.6,1111122 
TABS,ioos:station:wmo:42047:1,2019-03-07T15:00:00Z,27.8966,-93.5973,92.6,1111122 
TABS,ioos:station:wmo:42047:1,2019-03-07T16:00:00Z,27.8966,-93.5973,93.0,1111122 
TABS,ioos:station:wmo:42047:1,2019-03-07T17:00:00Z,27.8966,-93.5973,93.3,1111122 
TABS,ioos:station:wmo:42047:1,2019-03-07T18:00:00Z,27.8966,-93.5973,93.1,1111122 
TABS,ioos:station:wmo:42047:1,2019-03-07T19:00:00Z,27.8966,-93.5973,93.3,1111122 
TABS,ioos:station:wmo:42047:1,2019-03-07T20:00:00Z,27.8966,-93.5973,93.4,1111122 
TABS,ioos:station:wmo:42047:1,2019-03-07T21:00:00Z,27.8966,-93.5973,93.9,1111122 
TABS,ioos:station:wmo:42047:1,2019-03-07T22:00:00Z,27.8966,-93.5973,93.6,1111122 
TABS,ioos:station:wmo:42047:1,2019-03-07T23:00:00Z,27.8966,-93.5973,93.1,1111122 
TABS,ioos:station:wmo:42047:1,2019-03-07T23:30:00Z,27.8966,-93.5973,93.3,1111122 
TABS,ioos:station:wmo:42047:1,2019-03-08T05:00:00Z,27.8966,-93.5973,93.3,1111122 
TABS,ioos:station:wmo:42047:1,2019-03-08T06:00:00Z,27.8966,-93.5973,93.3,1111122 
TABS,ioos:station:wmo:42047:1,2019-03-08T07:00:00Z,27.8966,-93.5973,93.4,1111122 
TABS,ioos:station:wmo:42047:1,2019-03-08T08:00:00Z,27.8966,-93.5973,93.2,1111122 
TABS,ioos:station:wmo:42047:1,2019-03-08T09:00:00Z,27.8966,-93.5973,93.3,1111122 
TABS,ioos:station:wmo:42047:1,2019-03-08T10:00:00Z,27.8966,-93.5973,93.4,1111122 
TABS,ioos:station:wmo:42047:1,2019-03-08T12:00:00Z,27.8966,-93.5973,93.6,1111122 
TABS,ioos:station:wmo:42047:1,2019-03-08T13:00:00Z,27.8966,-93.5973,93.8,1111122 
TABS,ioos:station:wmo:42047:1,2019-03-08T15:30:00Z,27.8966,-93.5973,94.6,1111122 
TABS,ioos:station:wmo:42047:1,2019-03-08T17:00:00Z,27.8966,-93.5973,95.0,1111122 
TABS,ioos:station:wmo:42047:1,2019-03-08T17:30:00Z,27.8966,-93.5973,95.1,1111122 
TABS,ioos:station:wmo:42047:1,2019-03-08T18:30:00Z,27.8966,-93.5973,95.2,1111122 
TABS,ioos:station:wmo:42047:1,2019-03-08T20:00:00Z,27.8966,-93.5973,95.3,1111122 
TABS,ioos:station:wmo:42047:1,2019-03-08T21:00:00Z,27.8966,-93.5973,95.1,1111122 
TABS,ioos:station:wmo:42047:1,2019-03-08T22:00:00Z,27.8966,-93.5973,94.9,1111122 
TABS,ioos:station:wmo:42047:1,2019-03-08T23:00:00Z,27.8966,-93.5973,94.9,1111122 
TABS,ioos:station:wmo:42047:1,2019-03-08T23:30:00Z,27.8966,-93.5973,94.8,1111122 
TABS,ioos:station:wmo:42047:1,2019-03-09T05:00:00Z,27.8966,-93.5973,95.1,1111122 
TABS,ioos:station:wmo:42047:1,2019-03-09T06:00:00Z,27.8966,-93.5973,94.9,1111122 
TABS,ioos:station:wmo:42047:1,2019-03-09T07:00:00Z,27.8966,-93.5973,94.8,1111122 
TABS,ioos:station:wmo:42047:1,2019-03-09T08:00:00Z,27.8966,-93.5973,94.9,1111122 
TABS,ioos:station:wmo:42047:1,2019-03-09T09:00:00Z,27.8966,-93.5973,94.8,1111122 
TABS,ioos:station:wmo:42047:1,2019-03-09T10:00:00Z,27.8966,-93.5973,94.8,1111122 
TABS,ioos:station:wmo:42047:1,2019-03-09T11:00:00Z,27.8966,-93.5973,94.9,1111122 
TABS,ioos:station:wmo:42047:1,2019-03-09T12:00:00Z,27.8966,-93.5973,95.0,1111122 
TABS,ioos:station:wmo:42047:1,2019-03-09T13:00:00Z,27.8966,-93.5973,95.1,1111122 
TABS,ioos:station:wmo:42047:1,2019-03-09T14:00:00Z,27.8966,-93.5973,95.3,1111122 
TABS,ioos:station:wmo:42047:1,2019-03-09T15:00:00Z,27.8966,-93.5973,95.8,1111122 
TABS,ioos:station:wmo:42047:1,2019-03-09T16:00:00Z,27.8966,-93.5973,96.1,1111122 
TABS,ioos:station:wmo:42047:1,2019-03-09T17:00:00Z,27.8966,-93.5973,96.5,1111122 
TABS,ioos:station:wmo:42047:1,2019-03-09T18:00:00Z,27.8966,-93.5973,96.4,1111122 
TABS,ioos:station:wmo:42047:1,2019-03-09T19:00:00Z,27.8966,-93.5973,96.5,1111122 
TABS,ioos:station:wmo:42047:1,2019-03-09T20:00:00Z,27.8966,-93.5973,96.6,1111122 
TABS,ioos:station:wmo:42047:1,2019-03-09T21:00:00Z,27.8966,-93.5973,96.6,1111122 
TABS,ioos:station:wmo:42047:1,2019-03-09T22:00:00Z,27.8966,-93.5973,96.5,1111122 
TABS,ioos:station:wmo:42047:1,2019-03-09T23:00:00Z,27.8966,-93.5973,96.5,1111122 
TABS,ioos:station:wmo:42047:1,2019-03-09T23:30:00Z,27.8966,-93.5973,96.4,1111122 
TABS,ioos:station:wmo:42047:1,2019-03-10T05:00:00Z,27.8966,-93.5973,96.7,1111122 
TABS,ioos:station:wmo:42047:1,2019-03-10T06:00:00Z,27.8966,-93.5973,96.8,1111122 
TABS,ioos:station:wmo:42047:1,2019-03-10T07:00:00Z,27.8966,-93.5973,96.8,1111122 
TABS,ioos:station:wmo:42047:1,2019-03-10T08:00:00Z,27.8966,-93.5973,96.8,1111122 
TABS,ioos:station:wmo:42047:1,2019-03-10T09:00:00Z,27.8966,-93.5973,96.8,1111122 
TABS,ioos:station:wmo:42047:1,2019-03-10T10:00:00Z,27.8966,-93.5973,96.9,1111122 
TABS,ioos:station:wmo:42047:1,2019-03-10T11:00:00Z,27.8966,-93.5973,96.7,1111122 
TABS,ioos:station:wmo:42047:1,2019-03-10T12:00:00Z,27.8966,-93.5973,96.8,1111122 
TABS,ioos:station:wmo:42047:1,2019-03-10T12:30:00Z,27.8966,-93.5973,96.7,1111122 
TABS,ioos:station:wmo:42047:1,2019-03-10T14:00:00Z,27.8966,-93.5973,97.1,1111122 
TABS,ioos:station:wmo:42047:1,2019-03-10T15:00:00Z,27.8966,-93.5973,97.8,1111122 
TABS,ioos:station:wmo:42047:1,2019-03-10T16:00:00Z,27.8966,-93.5973,97.7,1111122 
TABS,ioos:station:wmo:42047:1,2019-03-10T17:00:00Z,27.8966,-93.5973,97.9,1111122 
TABS,ioos:station:wmo:42047:1,2019-03-10T18:00:00Z,27.8966,-93.5973,98.0,1111122 
TABS,ioos:station:wmo:42047:1,2019-03-10T19:00:00Z,27.8966,-93.5973,98.1,1111122 
TABS,ioos:station:wmo:42047:1,2019-03-10T20:00:00Z,27.8966,-93.5973,98.2,1111122 
TABS,ioos:station:wmo:42047:1,2019-03-10T21:00:00Z,27.8966,-93.5973,98.0,1111122 
TABS,ioos:station:wmo:42047:1,2019-03-11T04:00:00Z,27.8966,-93.5973,98.6,1111122 
TABS,ioos:station:wmo:42047:1,2019-03-11T05:00:00Z,27.8966,-93.5973,98.6,1111122 
TABS,ioos:station:wmo:42047:1,2019-03-11T06:00:00Z,27.8966,-93.5973,98.6,1111122 
TABS,ioos:station:wmo:42047:1,2019-03-11T07:30:00Z,27.8966,-93.5973,98.6,1111122 
TABS,ioos:station:wmo:42047:1,2019-03-11T08:30:00Z,27.8966,-93.5973,98.5,1111122 
TABS,ioos:station:wmo:42047:1,2019-03-11T09:30:00Z,27.8966,-93.5973,98.5,1111122 
TABS,ioos:station:wmo:42047:1,2019-03-11T11:00:00Z,27.8966,-93.5973,98.3,1111122 
TABS,ioos:station:wmo:42047:1,2019-03-11T12:00:00Z,27.8966,-93.5973,98.4,1111122 
TABS,ioos:station:wmo:42047:1,2019-03-11T13:00:00Z,27.8966,-93.5973,98.7,1111122 
TABS,ioos:station:wmo:42047:1,2019-03-11T14:00:00Z,27.8966,-93.5973,99.5,1111122 
TABS,ioos:station:wmo:42047:1,2019-03-11T15:00:00Z,27.8966,-93.5973,99.1,1111122 
TABS,ioos:station:wmo:42047:1,2019-03-11T16:00:00Z,27.8966,-93.5973,99.2,1111122 
TABS,ioos:station:wmo:42047:1,2019-03-11T17:00:00Z,27.8966,-93.5973,99.8,1111122 
TABS,ioos:station:wmo:42047:1,2019-03-11T18:00:00Z,27.8966,-93.5973,99.8,1111122 
TABS,ioos:station:wmo:42047:1,2019-03-11T19:00:00Z,27.8966,-93.5973,99.8,1111122 
TABS,ioos:station:wmo:42047:1,2019-03-11T20:00:00Z,27.8966,-93.5973,99.8,1111122 
TABS,ioos:station:wmo:42047:1,2019-03-11T21:00:00Z,27.8966,-93.5973,99.9,1111122 
TABS,ioos:station:wmo:42047:1,2019-03-11T22:00:00Z,27.8966,-93.5973,99.9,1111122 
TABS,ioos:station:wmo:42047:1,2019-03-11T23:00:00Z,27.8966,-93.5973,99.5,1111122 
TABS,ioos:station:wmo:42047:1,2019-03-11T23:30:00Z,27.8966,-93.5973,99.6,1111122 
TABS,ioos:station:wmo:42047:1,2019-03-12T05:00:00Z,27.8966,-93.5973,99.4,1111122 
TABS,ioos:station:wmo:42047:1,2019-03-12T06:00:00Z,27.8966,-93.5973,99.4,1111122 
TABS,ioos:station:wmo:42047:1,2019-03-12T07:00:00Z,27.8966,-93.5973,99.3,1111122 
TABS,ioos:station:wmo:42047:1,2019-03-12T08:00:00Z,27.8966,-93.5973,99.3,1111122 
TABS,ioos:station:wmo:42047:1,2019-03-12T09:00:00Z,27.8966,-93.5973,99.2,1111122 
TABS,ioos:station:wmo:42047:1,2019-03-12T10:00:00Z,27.8966,-93.5973,99.3,1111122 
TABS,ioos:station:wmo:42047:1,2019-03-12T10:30:00Z,27.8966,-93.5973,99.3,1111122 
TABS,ioos:station:wmo:42047:1,2019-03-12T12:00:00Z,27.8966,-93.5973,99.2,1111122 
TABS,ioos:station:wmo:42047:1,2019-03-12T13:00:00Z,27.8966,-93.5973,99.3,1111122 
TABS,ioos:station:wmo:42047:1,2019-03-12T14:00:00Z,27.8966,-93.5973,99.8,1111122 
TABS,ioos:station:wmo:42047:1,2019-03-12T15:00:00Z,27.8966,-93.5973,100.3,1111122 
TABS,ioos:station:wmo:42047:1,2019-03-12T16:00:00Z,27.8966,-93.5973,100.3,1111122 
TABS,ioos:station:wmo:42047:1,2019-03-12T17:00:00Z,27.8966,-93.5973,100.2,1111122 
TABS,ioos:station:wmo:42047:1,2019-03-12T18:00:00Z,27.8966,-93.5973,100.7,1111122 
TABS,ioos:station:wmo:42047:1,2019-03-12T19:00:00Z,27.8966,-93.5973,100.2,1111122 
TABS,ioos:station:wmo:42047:1,2019-03-12T20:00:00Z,27.8966,-93.5973,100.3,1111122 
TABS,ioos:station:wmo:42047:1,2019-03-12T21:00:00Z,27.8966,-93.5973,100.3,1111122 
TABS,ioos:station:wmo:42047:1,2019-03-12T22:00:00Z,27.8966,-93.5973,100.3,1111122 
TABS,ioos:station:wmo:42047:1,2019-03-12T23:00:00Z,27.8966,-93.5973,99.8,1111122 
TABS,ioos:station:wmo:42047:1,2019-03-12T23:30:00Z,27.8966,-93.5973,99.8,1111122 
TABS,ioos:station:wmo:42047:1,2019-03-13T04:00:00Z,27.8966,-93.5973,99.2,1111122 
TABS,ioos:station:wmo:42047:1,2019-03-13T05:00:00Z,27.8966,-93.5973,99.2,1111122 
TABS,ioos:station:wmo:42047:1,2019-03-13T06:00:00Z,27.8966,-93.5973,99.2,1111122 
TABS,ioos:station:wmo:42047:1,2019-03-13T07:00:00Z,27.8966,-93.5973,99.1,1111122 
TABS,ioos:station:wmo:42047:1,2019-03-13T08:00:00Z,27.8966,-93.5973,99.0,1111122 
TABS,ioos:station:wmo:42047:1,2019-03-13T09:00:00Z,27.8966,-93.5973,98.8,1111122 
TABS,ioos:station:wmo:42047:1,2019-03-13T10:00:00Z,27.8966,-93.5973,99.0,1111122 
TABS,ioos:station:wmo:42047:1,2019-03-13T11:00:00Z,27.8966,-93.5973,98.8,1111122 
TABS,ioos:station:wmo:42047:1,2019-03-13T12:00:00Z,27.8966,-93.5973,98.8,1111122 
TABS,ioos:station:wmo:42047:1,2019-03-13T13:00:00Z,27.8966,-93.5973,98.9,1111122 
TABS,ioos:station:wmo:42047:1,2019-03-13T14:00:00Z,27.8966,-93.5973,99.5,1111122 
TABS,ioos:station:wmo:42047:1,2019-03-13T15:00:00Z,27.8966,-93.5973,99.9,1111122 
TABS,ioos:station:wmo:42047:1,2019-03-13T16:00:00Z,27.8966,-93.5973,100.1,1111122 
TABS,ioos:station:wmo:42047:1,2019-03-13T17:00:00Z,27.8966,-93.5973,100.2,1111122 
TABS,ioos:station:wmo:42047:1,2019-03-13T18:00:00Z,27.8966,-93.5973,100.2,1111122 
TABS,ioos:station:wmo:42047:1,2019-03-13T19:00:00Z,27.8966,-93.5973,100.1,1111122 
TABS,ioos:station:wmo:42047:1,2019-03-13T19:30:00Z,27.8966,-93.5973,100.1,1111122 
TABS,ioos:station:wmo:42047:1,2019-03-13T20:30:00Z,27.8966,-93.5973,100.1,1111122 
TABS,ioos:station:wmo:42047:1,2019-03-13T22:00:00Z,27.8966,-93.5973,99.8,1111122 
TABS,ioos:station:wmo:42047:1,2019-03-13T23:00:00Z,27.8966,-93.5973,99.3,1111122 
TABS,ioos:station:wmo:42047:1,2019-03-13T23:30:00Z,27.8966,-93.5973,99.8,1111122 
TABS,ioos:station:wmo:42047:1,2019-03-14T04:00:00Z,27.8966,-93.5973,99.1,1111122 
TABS,ioos:station:wmo:42047:1,2019-03-14T05:00:00Z,27.8966,-93.5973,99.2,1111122 
TABS,ioos:station:wmo:42047:1,2019-03-14T06:00:00Z,27.8966,-93.5973,99.0,1111122 
TABS,ioos:station:wmo:42047:1,2019-03-14T07:00:00Z,27.8966,-93.5973,99.0,1111122 
TABS,ioos:station:wmo:42047:1,2019-03-14T07:30:00Z,27.8966,-93.5973,99.1,1111122 
TABS,ioos:station:wmo:42047:1,2019-03-14T09:00:00Z,27.8966,-93.5973,99.0,1111122 
TABS,ioos:station:wmo:42047:1,2019-03-14T11:00:00Z,27.8966,-93.5973,99.0,1111122 
TABS,ioos:station:wmo:42047:1,2019-03-14T11:30:00Z,27.8966,-93.5973,98.8,1111122 
TABS,ioos:station:wmo:42047:1,2019-03-14T13:00:00Z,27.8966,-93.5973,99.2,1111122 
TABS,ioos:station:wmo:42047:1,2019-03-14T14:00:00Z,27.8966,-93.5973,100.0,1111122 
TABS,ioos:station:wmo:42047:1,2019-03-14T15:00:00Z,27.8966,-93.5973,100.0,1111122 
TABS,ioos:station:wmo:42047:1,2019-03-14T16:00:00Z,27.8966,-93.5973,100.0,1111122 
TABS,ioos:station:wmo:42047:1,2019-03-14T17:00:00Z,27.8966,-93.5973,100.0,1111122 
TABS,ioos:station:wmo:42047:1,2019-03-14T18:00:00Z,27.8966,-93.5973,99.5,1111122 
TABS,ioos:station:wmo:42047:1,2019-03-14T18:30:00Z,27.8966,-93.5973,99.4,1111122 
TABS,ioos:station:wmo:42047:1,2019-03-14T20:00:00Z,27.8966,-93.5973,100.2,1111122 
TABS,ioos:station:wmo:42047:1,2019-03-14T21:00:00Z,27.8966,-93.5973,100.2,1111122 
TABS,ioos:station:wmo:42047:1,2019-03-14T22:00:00Z,27.8966,-93.5973,99.6,1111122 
TABS,ioos:station:wmo:42047:1,2019-03-14T23:00:00Z,27.8966,-93.5973,99.1,1111122 
TABS,ioos:station:wmo:42047:1,2019-03-14T23:30:00Z,27.8966,-93.5973,98.9,1111122 
TABS,ioos:station:wmo:42047:1,2019-03-15T04:00:00Z,27.8966,-93.5973,96.9,1111122 
TABS,ioos:station:wmo:42047:1,2019-03-15T05:30:00Z,27.8966,-93.5973,96.8,1111122 
TABS,ioos:station:wmo:42047:1,2019-03-15T07:00:00Z,27.8966,-93.5973,96.3,1111122 
TABS,ioos:station:wmo:42047:1,2019-03-15T08:00:00Z,27.8966,-93.5973,95.8,1111122 
TABS,ioos:station:wmo:42047:1,2019-03-15T08:30:00Z,27.8966,-93.5973,95.0,1111122 
TABS,ioos:station:wmo:42047:1,2019-03-15T10:00:00Z,27.8966,-93.5973,94.7,1111122 
TABS,ioos:station:wmo:42047:1,2019-03-15T11:00:00Z,27.8966,-93.5973,94.3,1111122 
TABS,ioos:station:wmo:42047:1,2019-03-15T12:00:00Z,27.8966,-93.5973,94.2,1111122 
TABS,ioos:station:wmo:42047:1,2019-03-15T12:30:00Z,27.8966,-93.5973,93.7,1111122 
TABS,ioos:station:wmo:42047:1,2019-03-15T14:00:00Z,27.8966,-93.5973,93.5,1111122 
TABS,ioos:station:wmo:42047:1,2019-03-15T14:30:00Z,27.8966,-93.5973,93.5,1111122 
TABS,ioos:station:wmo:42047:1,2019-03-15T15:30:00Z,27.8966,-93.5973,93.1,1111122 
TABS,ioos:station:wmo:42047:1,2019-03-15T16:30:00Z,27.8966,-93.5973,92.9,1111122 
TABS,ioos:station:wmo:42047:1,2019-03-15T17:30:00Z,27.8966,-93.5973,92.8,1111122 
TABS,ioos:station:wmo:42047:1,2019-03-15T19:00:00Z,27.8966,-93.5973,93.1,1111122 
TABS,ioos:station:wmo:42047:1,2019-03-15T20:00:00Z,27.8966,-93.5973,93.0,1111122 
TABS,ioos:station:wmo:42047:1,2019-03-15T21:00:00Z,27.8966,-93.5973,92.9,1111122 
TABS,ioos:station:wmo:42047:1,2019-03-15T22:00:00Z,27.8966,-93.5973,92.5,1111122 
TABS,ioos:station:wmo:42047:1,2019-03-15T23:00:00Z,27.8966,-93.5973,92.9,1111122 
TABS,ioos:station:wmo:42047:1,2019-03-15T23:30:00Z,27.8966,-93.5973,92.7,1111122 